SCP
0 0 0 0 0 0 0 0 0 0 0 0 0 0 0 -0 -0 0 0 0 0 0 -0 0 0 0 0 0 0 0 0 0 0 0 0 0 0 0 0 0 0 0 0 0
0 0 0 0 0 0 0 0 0 0 0 0 0 0 0 -0 -0 0 0 0 0 0 -0 0 0 0 0 0 0 0 0 0 0 0 0 0 0 0 0 0 0 0 0 0
0 0 0 0 0 0 0 0 0 0 0 0 0 0 0 0 0 0 0 0 0 0 0 0 0 0 0 0 0 0 0 0 0 0 0 0 0 0 0 0 0 0 0 0
0 0 0 0 0 0 0 0 0 0 0 0 0 -0 0 0 0 0 0 0 0 0 0 0 0 0 0 0 0 0 0 0 0 0 0 0 0 0 0 0 0 0 0 0
0 0 0 0 0 0 0 0 0 0 0 0 0 0 0 0 0 0 0 0 0 0 0 0 0 0 0 0 0 0 0 0 0 0 0 0 0 0 0 0 0 0 0 0
0 0 0 0 0 0 0 0 0 0 0 0 0 0 0 0 0 0 0 0 0 0 0 0 0 0 0 0 0 0 0 0 0 0 0 0 0 0 0 0 0 0 0 0
0 0 0 0 0 0 0 0 0 0 0 0 0 0 0 0 0 0 0 0 0 0 0 0 0 0 0 0 0 0 0 0 0 0 0 0 0 0 0 0 0 0 0 0
0 0 0 0 0 0 0 0 0 0 0 0 0 0 0 0 0 0 0 0 0 0 0 0 0 0 0 0 0 0 0 0 0 0 0 0 0 0 0 0 0 0 0 0
0 0 0 0 0 0 0 0 0 0 0 0 0 0 0 0 0 0 0 0 0 0 0 0 0 0 0 0 0 0 0 0 0 0 0 0 0 0 0 0 0 0 0 0
0 0 0 0 0 0 0 0 0 0 0 0 0 0 0 0 0 0 0 0 0 0 0 0 0 0 0 0 0 0 0 0 0 0 0 0 0 0 0 0 0 0 0 0
0 0 0 0 0 0 0 0 0 0 0 0 0 0 0 0 0 0 0 0 0 0 0 0 0 0 0 0 0 0 0 0 0 0 0 0 0 0 0 0 0 0 0 0
0 0 0 0 0 0 0 0 0 0 0 0 0 0 0 0 0 0 0 0 0 0 0 0 0 0 0 0 0 0 0 0 0 0 0 0 0 0 0 0 0 0 0 0
0 0 0 0 0 0 0 0 0 0 0 0 0 0 0 0 0 0 0 0 -0 -0 -0 -0 0 0 0 0 0 0 0 0 0 0 0 0 0 0 0 0 0 0 0 0
0 0 0 0 0 0 0 0 0 0 0 0 0 0 0 0 0 0 0 0 -0 -0 -0 -0 -0 -0 0 0 0 0 0 0 0 0 0 0 0 0 0 0 0 0 0 0
0 0 0 0 0 0 0 0 0 0 0 0 0 0 0 0 0 -0 -0 -0 -0 -0 0 -0 -0 0 0 0 0 0 0 0 0 0 0 0 0 0 0 0 0 0 0 0
0 0 0 0 0 0 0 0 0 0 0 0 0 0 0 0 0 0 -0 -0 0 -0 -0 0 0 0 0 0 0 0 0 0 0 0 0 0 0 0 0 0 0 0 0 0
0 0 0 0 0 0 0 0 0 0 0 0 0 0 0 0 0 0 0 0 0 0 0 0 0 0 0 0 0 0 0 0 0 0 0 0 0 0 0 0 0 0 0 0
0 0 0 0 0 0 0 0 0 0 0 0 0 0 0 0 0 0 0 0 0 0 0 0 0 0 0 0 0 0 0 0 0 0 0 0 0 0 0 0 0 0 0 0
0 0 0 0 0 0 0 0 0 0 0 0 0 0 0 0 0 0 0 0 0 0 0 0 0 0 0 0 0 0 0 0 0 0 0 0 0 0 0 0 0 0 0 0
0 0 0 0 0 0 0 0 0 0 0 0 0 0 0 0 0 0 0 0 0 0 0 0 0 0 0 0 0 0 0 0 0 0 0 0 0 0 0 0 0 0 0 0
0 0 0 0 0 0 0 0 0 0 0 0 0 0 0 0 0 0 0 0 0 0 0 0 0 0 0 0 0 0 0 0 0 0 0 0 0 0 0 0 0 0 0 0
0 0 0 0 0 0 0 0 0 0 0 0 0 0 0 0 0 0 0 0 0 0 0 0 -0 0 -0 -0 -0 0 0 0 0 0 0 0 0 0 0 0 0 0 0 0
0 0 0 0 0 0 0 0 0 0 0 0 0 0 0 0 0 0 0 0 0 0 0 0 0 0 -0 -0 -0 -0 0 0 0 0 0 0 0 0 0 0 0 0 0 0
0 0 0 0 0 0 0 0 0 0 0 0 0 0 0 0 0 0 0 0 0 0 0 0 0 0 0 0 0 -0 0 0 0 0 0 0 0 0 0 0 0 0 0 0
0 0 0 0 0 0 0 0 0 0 0 0 0 0 0 -0 0 0 0 0 0 0 0 0 0 0 0 0 0 0 0 0 0 0 0 0 0 0 0 0 0 0 0 0
0 0 0 0 0 0 0 0 0 0 0 0 0 0 0 0 0 0 0 0 0 0 0 0 0 0 0 0 0 0 0 0 0 0 0 0 0 0 0 0 0 0 0 0
Wind_Speed_500mb
7 7 17 20 9 9 13 8 8 3 3 5 11 13 24 26 23 35 46 52 57 57 49 47 47 50 50 51 52 48 44 41 43 43 43 44 43 42 42 41 41 41 40 38
8 20 9 16 11 10 8 8 5 2 3 6 5 19 23 17 25 51 57 59 64 62 58 52 54 58 60 59 58 55 51 48 45 43 42 42 39 42 40 41 43 44 44 43
15 4 23 12 9 13 3 11 7 3 2 4 10 15 11 10 25 52 60 68 67 70 65 61 60 63 66 70 66 63 56 52 48 46 46 47 47 46 45 46 45 45 45 45
7 4 16 13 13 12 9 8 9 8 5 4 7 9 12 10 18 15 47 63 79 78 72 70 70 70 72 69 68 67 61 57 54 51 53 53 50 46 40 39 40 43 44 45
12 15 14 11 15 12 8 11 10 6 8 5 8 4 15 4 15 19 24 31 50 57 63 76 82 76 74 69 70 69 68 63 58 58 59 56 54 47 43 41 42 45 45 46
4 1 6 14 6 11 19 15 15 9 6 4 6 8 12 8 6 10 6 18 32 29 25 47 58 66 75 75 73 73 71 68 64 63 61 60 56 50 49 47 45 44 45 46
7 1 3 6 15 10 9 15 5 5 4 10 2 6 20 14 13 11 25 50 37 27 22 23 36 52 63 75 76 74 73 73 69 67 65 63 58 54 53 50 47 46 43 44
13 4 14 6 11 18 14 16 11 15 9 5 5 11 10 9 22 13 17 28 17 15 22 17 19 29 45 60 70 73 74 73 70 68 67 63 60 58 57 53 50 48 45 40
11 7 4 6 2 10 13 10 11 14 5 5 7 13 13 5 16 29 39 53 52 37 31 28 17 15 26 39 53 63 71 73 69 66 66 65 62 61 59 56 54 51 48 44
14 9 3 2 2 7 7 16 8 6 7 5 7 10 8 5 9 15 28 44 50 53 54 46 30 18 12 21 33 45 57 66 68 67 67 65 62 61 60 59 59 55 50 50
10 8 3 3 10 15 6 5 8 9 7 10 7 12 11 13 13 12 15 33 47 56 62 55 52 44 24 13 17 28 40 51 62 66 66 66 64 62 62 63 61 59 55 54
9 11 8 6 4 2 1 11 11 9 10 4 3 10 8 13 16 18 17 23 32 45 51 47 42 44 35 26 17 18 26 36 45 55 65 67 65 65 65 66 64 62 61 59
14 2 7 10 8 4 8 8 6 9 6 12 12 10 3 7 12 14 11 9 38 47 42 42 37 38 37 30 25 19 20 27 35 44 54 64 68 68 68 67 66 67 66 64
12 5 10 15 8 13 12 13 12 11 6 10 12 11 11 12 14 14 20 40 45 44 48 46 37 32 31 29 26 25 23 24 29 38 48 57 64 66 68 67 68 69 69 69
6 8 4 8 7 6 5 16 20 19 19 16 10 15 14 15 14 14 30 34 41 47 48 43 40 32 22 24 27 31 33 33 32 35 42 50 56 61 66 69 69 69 72 72
13 4 5 2 7 9 5 9 18 16 10 6 7 10 16 30 30 36 30 38 43 38 32 34 37 37 33 27 27 33 36 37 40 44 46 47 52 58 64 67 69 71 74 74
28 14 9 22 10 14 16 12 15 10 10 14 19 17 9 11 16 20 39 35 23 27 32 36 40 38 37 37 37 35 36 38 43 47 49 53 54 57 60 63 68 72 75 76
14 13 6 6 5 6 12 4 9 22 11 15 3 9 13 10 6 21 13 16 21 29 33 36 38 39 42 41 40 40 40 40 42 45 50 53 57 59 59 62 66 70 74 77
1 11 7 11 10 8 8 12 13 13 10 19 24 20 27 19 4 13 20 20 23 30 34 37 39 42 44 44 48 51 49 46 44 45 50 51 54 58 60 62 64 67 71 75
10 11 10 5 11 16 11 5 11 9 6 3 18 12 13 18 7 5 12 21 26 31 35 38 42 46 46 48 52 55 54 52 49 46 44 46 49 51 56 56 59 62 67 71
7 7 12 8 5 13 12 10 16 12 10 10 18 18 22 7 9 3 16 22 30 37 40 43 43 44 47 50 54 56 57 56 53 50 51 50 47 48 46 47 50 55 60 66
13 13 7 7 6 12 22 9 17 10 18 22 20 18 15 10 3 14 22 29 34 40 44 48 50 49 50 54 58 59 60 58 57 54 50 47 47 44 42 43 44 48 53 59
3 11 13 16 13 3 42 6 21 25 30 20 17 15 7 4 11 21 28 32 36 39 42 44 49 50 52 56 63 65 61 58 53 51 47 44 41 39 36 40 43 47 50 54
5 6 7 8 9 7 30 24 29 25 21 18 11 5 3 9 18 24 27 29 32 35 41 45 47 50 53 57 57 58 57 54 48 45 42 38 37 35 33 37 40 45 49 53
7 19 11 3 4 13 13 29 30 25 19 15 7 1 7 14 18 23 27 30 36 41 44 48 50 49 50 51 50 50 49 47 45 40 35 32 31 31 32 35 39 41 40 43
18 13 10 10 25 14 19 38 32 27 18 10 6 8 15 23 28 31 32 35 40 42 45 46 44 42 39 39 41 42 45 44 40 35 34 31 30 30 32 33 35 37 38 35
Wind_Direction_500mb
152 124 197 187 144 154 137 132 159 234 4 181 244 267 273 273 263 252 242 238 236 236 237 229 229 229 227 225 224 226 226 224 225 226 226 227 229 231 232 232 232 234 235 236
74 225 167 131 135 119 122 127 201 350 24 156 347 279 262 241 241 246 247 241 239 239 238 232 228 230 230 231 229 228 229 228 231 233 235 237 237 237 237 237 237 238 238 239
163 259 144 131 142 126 124 156 172 166 92 60 333 287 270 271 250 250 248 249 250 245 240 236 230 232 232 230 231 232 232 233 233 234 235 236 234 235 235 237 240 240 241 242
189 103 152 141 174 130 160 183 126 128 81 241 11 277 297 282 283 247 255 250 250 248 247 245 240 237 236 236 235 235 234 235 234 234 236 238 243 245 248 250 249 247 246 246
220 163 152 157 198 147 187 129 130 93 87 44 332 38 271 329 300 288 285 268 261 259 256 251 246 242 242 240 239 237 235 234 235 236 238 240 243 244 245 245 246 246 247 247
124 139 172 179 97 137 155 83 48 56 78 350 263 150 281 251 225 308 352 312 309 301 300 258 251 245 240 238 238 237 236 236 236 237 239 242 244 245 245 246 247 250 249 250
32 281 304 151 84 38 96 96 24 5 12 222 333 112 247 298 276 257 301 315 303 320 297 293 249 243 236 233 235 236 235 236 236 237 240 242 244 245 247 247 249 250 254 255
146 245 176 186 171 168 175 158 156 186 191 205 74 231 254 269 307 327 3 13 26 345 7 340 288 256 244 238 235 235 236 237 237 239 241 244 245 245 247 248 250 251 253 256
132 215 345 38 53 156 193 180 148 108 15 77 213 284 304 17 23 36 34 44 43 41 27 17 359 292 259 245 240 239 238 238 239 242 244 245 246 246 247 249 250 250 251 251
201 106 356 322 165 45 163 154 81 6 123 242 272 281 221 155 72 13 19 36 45 45 40 34 25 4 305 265 252 247 245 244 244 244 246 248 250 251 250 249 249 250 251 250
144 100 277 143 209 167 125 163 68 117 146 161 156 255 213 162 143 82 30 58 51 39 24 22 30 27 13 328 268 253 249 248 246 246 247 249 251 251 251 250 250 250 249 249
192 117 143 184 253 191 84 177 149 140 206 211 134 267 185 174 161 102 71 61 33 17 18 22 13 11 11 4 332 289 265 256 252 250 249 250 251 251 251 251 251 249 249 249
182 124 84 5 356 351 202 184 127 110 93 191 146 252 178 233 192 190 18 11 358 5 15 13 11 6 360 355 350 331 296 277 264 258 255 252 251 252 253 253 252 249 248 247
91 109 167 185 199 136 180 178 174 144 152 163 215 220 202 213 204 257 345 347 357 5 1 358 357 360 356 348 341 337 326 305 284 269 261 257 254 255 256 256 253 250 249 248
55 164 102 33 81 98 133 172 172 200 188 184 191 210 264 215 201 211 329 346 355 352 349 357 357 354 340 332 330 327 322 316 303 287 275 268 264 259 257 255 253 251 249 248
155 223 15 186 13 50 69 188 206 216 182 255 135 252 240 280 315 329 348 360 350 356 16 15 9 6 7 359 332 316 307 302 295 287 285 280 272 264 259 256 253 251 249 248
165 136 143 233 352 13 310 212 184 201 200 190 214 222 200 279 311 310 329 347 18 25 16 17 14 10 1 350 338 332 328 315 298 288 284 281 276 271 265 261 256 252 250 249
128 125 129 134 98 201 240 262 202 195 187 207 178 217 202 186 286 328 24 43 37 20 9 6 5 6 0 353 344 339 330 315 310 309 294 282 279 275 270 264 260 256 253 251
13 121 100 154 184 276 259 228 171 168 252 197 211 232 259 277 185 127 56 42 17 10 7 3 1 358 354 349 347 343 339 329 317 312 304 301 290 282 276 270 266 262 257 253
67 66 117 108 145 202 234 190 169 121 289 200 198 221 193 158 131 222 359 8 8 2 355 349 347 344 340 336 336 336 336 334 326 312 301 296 296 291 282 277 271 267 262 258
69 40 138 154 198 286 247 187 143 100 231 129 127 126 136 119 111 103 350 351 344 339 337 335 337 338 334 330 329 331 332 327 322 316 307 299 295 293 288 280 274 270 265 261
148 137 166 82 78 271 173 128 166 170 124 130 121 120 120 109 7 321 330 332 332 331 331 329 329 332 329 327 326 327 328 324 318 314 310 303 298 295 288 280 272 265 261 258
214 176 172 182 202 251 174 145 148 144 142 144 147 151 163 274 321 329 331 327 326 325 325 327 328 329 327 324 324 325 325 323 317 312 309 306 301 298 292 279 273 265 259 254
244 199 144 110 216 205 177 149 156 152 152 155 161 183 280 327 324 321 322 323 323 322 320 320 321 321 320 321 322 323 325 322 319 313 308 306 306 301 292 281 274 267 263 257
202 146 153 257 241 117 169 191 173 163 163 162 166 315 325 319 313 310 309 311 316 318 317 315 315 317 319 318 321 324 326 323 317 314 311 310 310 309 298 288 281 275 270 264
188 170 164 214 182 165 194 191 186 184 185 190 219 276 299 304 304 303 304 306 311 312 312 312 313 315 319 322 327 330 332 332 330 328 325 320 318 314 306 295 284 276 267 255
Wind_Speed_850mb
7 7 17 20 9 9 13 8 8 3 3 5 11 13 24 26 23 35 46 52 57 57 49 47 47 50 50 51 52 48 44 41 43 43 43 44 43 42 42 41 41 41 40 38
8 20 9 16 11 10 8 8 5 2 3 6 5 19 23 17 25 51 57 59 64 62 58 52 54 58 60 59 58 55 51 48 45 43 42 42 39 42 40 41 43 44 44 43
15 4 23 12 9 13 3 11 7 3 2 4 10 15 11 10 25 52 60 68 67 70 65 61 60 63 66 70 66 63 56 52 48 46 46 47 47 46 45 46 45 45 45 45
7 4 16 13 13 12 9 8 9 8 5 4 7 9 12 10 18 15 47 63 79 78 72 70 70 70 72 69 68 67 61 57 54 51 53 53 50 46 40 39 40 43 44 45
12 15 14 11 15 12 8 11 10 6 8 5 8 4 15 4 15 19 24 31 50 57 63 76 82 76 74 69 70 69 68 63 58 58 59 56 54 47 43 41 42 45 45 46
4 1 6 14 6 11 19 15 15 9 6 4 6 8 12 8 6 10 6 18 32 29 25 47 58 66 75 75 73 73 71 68 64 63 61 60 56 50 49 47 45 44 45 46
7 1 3 6 15 10 9 15 5 5 4 10 2 6 20 14 13 11 25 50 37 27 22 23 36 52 63 75 76 74 73 73 69 67 65 63 58 54 53 50 47 46 43 44
13 4 14 6 11 18 14 16 11 15 9 5 5 11 10 9 22 13 17 28 17 15 22 17 19 29 45 60 70 73 74 73 70 68 67 63 60 58 57 53 50 48 45 40
11 7 4 6 2 10 13 10 11 14 5 5 7 13 13 5 16 29 39 53 52 37 31 28 17 15 26 39 53 63 71 73 69 66 66 65 62 61 59 56 54 51 48 44
14 9 3 2 2 7 7 16 8 6 7 5 7 10 8 5 9 15 28 44 50 53 54 46 30 18 12 21 33 45 57 66 68 67 67 65 62 61 60 59 59 55 50 50
10 8 3 3 10 15 6 5 8 9 7 10 7 12 11 13 13 12 15 33 47 56 62 55 52 44 24 13 17 28 40 51 62 66 66 66 64 62 62 63 61 59 55 54
9 11 8 6 4 2 1 11 11 9 10 4 3 10 8 13 16 18 17 23 32 45 51 47 42 44 35 26 17 18 26 36 45 55 65 67 65 65 65 66 64 62 61 59
14 2 7 10 8 4 8 8 6 9 6 12 12 10 3 7 12 14 11 9 38 47 42 42 37 38 37 30 25 19 20 27 35 44 54 64 68 68 68 67 66 67 66 64
12 5 10 15 8 13 12 13 12 11 6 10 12 11 11 12 14 14 20 40 45 44 48 46 37 32 31 29 26 25 23 24 29 38 48 57 64 66 68 67 68 69 69 69
6 8 4 8 7 6 5 16 20 19 19 16 10 15 14 15 14 14 30 34 41 47 48 43 40 32 22 24 27 31 33 33 32 35 42 50 56 61 66 69 69 69 72 72
13 4 5 2 7 9 5 9 18 16 10 6 7 10 16 30 30 36 30 38 43 38 32 34 37 37 33 27 27 33 36 37 40 44 46 47 52 58 64 67 69 71 74 74
28 14 9 22 10 14 16 12 15 10 10 14 19 17 9 11 16 20 39 35 23 27 32 36 40 38 37 37 37 35 36 38 43 47 49 53 54 57 60 63 68 72 75 76
14 13 6 6 5 6 12 4 9 22 11 15 3 9 13 10 6 21 13 16 21 29 33 36 38 39 42 41 40 40 40 40 42 45 50 53 57 59 59 62 66 70 74 77
1 11 7 11 10 8 8 12 13 13 10 19 24 20 27 19 4 13 20 20 23 30 34 37 39 42 44 44 48 51 49 46 44 45 50 51 54 58 60 62 64 67 71 75
10 11 10 5 11 16 11 5 11 9 6 3 18 12 13 18 7 5 12 21 26 31 35 38 42 46 46 48 52 55 54 52 49 46 44 46 49 51 56 56 59 62 67 71
7 7 12 8 5 13 12 10 16 12 10 10 18 18 22 7 9 3 16 22 30 37 40 43 43 44 47 50 54 56 57 56 53 50 51 50 47 48 46 47 50 55 60 66
13 13 7 7 6 12 22 9 17 10 18 22 20 18 15 10 3 14 22 29 34 40 44 48 50 49 50 54 58 59 60 58 57 54 50 47 47 44 42 43 44 48 53 59
3 11 13 16 13 3 42 6 21 25 30 20 17 15 7 4 11 21 28 32 36 39 42 44 49 50 52 56 63 65 61 58 53 51 47 44 41 39 36 40 43 47 50 54
5 6 7 8 9 7 30 24 29 25 21 18 11 5 3 9 18 24 27 29 32 35 41 45 47 50 53 57 57 58 57 54 48 45 42 38 37 35 33 37 40 45 49 53
7 19 11 3 4 13 13 29 30 25 19 15 7 1 7 14 18 23 27 30 36 41 44 48 50 49 50 51 50 50 49 47 45 40 35 32 31 31 32 35 39 41 40 43
18 13 10 10 25 14 19 38 32 27 18 10 6 8 15 23 28 31 32 35 40 42 45 46 44 42 39 39 41 42 45 44 40 35 34 31 30 30 32 33 35 37 38 35
Wind_Direction_850mb
152 124 197 187 144 154 137 132 159 234 4 181 244 267 273 273 263 252 242 238 236 236 237 229 229 229 227 225 224 226 226 224 225 226 226 227 229 231 232 232 232 234 235 236
74 225 167 131 135 119 122 127 201 350 24 156 347 279 262 241 241 246 247 241 239 239 238 232 228 230 230 231 229 228 229 228 231 233 235 237 237 237 237 237 237 238 238 239
163 259 144 131 142 126 124 156 172 166 92 60 333 287 270 271 250 250 248 249 250 245 240 236 230 232 232 230 231 232 232 233 233 234 235 236 234 235 235 237 240 240 241 242
189 103 152 141 174 130 160 183 126 128 81 241 11 277 297 282 283 247 255 250 250 248 247 245 240 237 236 236 235 235 234 235 234 234 236 238 243 245 248 250 249 247 246 246
220 163 152 157 198 147 187 129 130 93 87 44 332 38 271 329 300 288 285 268 261 259 256 251 246 242 242 240 239 237 235 234 235 236 238 240 243 244 245 245 246 246 247 247
124 139 172 179 97 137 155 83 48 56 78 350 263 150 281 251 225 308 352 312 309 301 300 258 251 245 240 238 238 237 236 236 236 237 239 242 244 245 245 246 247 250 249 250
32 281 304 151 84 38 96 96 24 5 12 222 333 112 247 298 276 257 301 315 303 320 297 293 249 243 236 233 235 236 235 236 236 237 240 242 244 245 247 247 249 250 254 255
146 245 176 186 171 168 175 158 156 186 191 205 74 231 254 269 307 327 3 13 26 345 7 340 288 256 244 238 235 235 236 237 237 239 241 244 245 245 247 248 250 251 253 256
132 215 345 38 53 156 193 180 148 108 15 77 213 284 304 17 23 36 34 44 43 41 27 17 359 292 259 245 240 239 238 238 239 242 244 245 246 246 247 249 250 250 251 251
201 106 356 322 165 45 163 154 81 6 123 242 272 281 221 155 72 13 19 36 45 45 40 34 25 4 305 265 252 247 245 244 244 244 246 248 250 251 250 249 249 250 251 250
144 100 277 143 209 167 125 163 68 117 146 161 156 255 213 162 143 82 30 58 51 39 24 22 30 27 13 328 268 253 249 248 246 246 247 249 251 251 251 250 250 250 249 249
192 117 143 184 253 191 84 177 149 140 206 211 134 267 185 174 161 102 71 61 33 17 18 22 13 11 11 4 332 289 265 256 252 250 249 250 251 251 251 251 251 249 249 249
182 124 84 5 356 351 202 184 127 110 93 191 146 252 178 233 192 190 18 11 358 5 15 13 11 6 360 355 350 331 296 277 264 258 255 252 251 252 253 253 252 249 248 247
91 109 167 185 199 136 180 178 174 144 152 163 215 220 202 213 204 257 345 347 357 5 1 358 357 360 356 348 341 337 326 305 284 269 261 257 254 255 256 256 253 250 249 248
55 164 102 33 81 98 133 172 172 200 188 184 191 210 264 215 201 211 329 346 355 352 349 357 357 354 340 332 330 327 322 316 303 287 275 268 264 259 257 255 253 251 249 248
155 223 15 186 13 50 69 188 206 216 182 255 135 252 240 280 315 329 348 360 350 356 16 15 9 6 7 359 332 316 307 302 295 287 285 280 272 264 259 256 253 251 249 248
165 136 143 233 352 13 310 212 184 201 200 190 214 222 200 279 311 310 329 347 18 25 16 17 14 10 1 350 338 332 328 315 298 288 284 281 276 271 265 261 256 252 250 249
128 125 129 134 98 201 240 262 202 195 187 207 178 217 202 186 286 328 24 43 37 20 9 6 5 6 0 353 344 339 330 315 310 309 294 282 279 275 270 264 260 256 253 251
13 121 100 154 184 276 259 228 171 168 252 197 211 232 259 277 185 127 56 42 17 10 7 3 1 358 354 349 347 343 339 329 317 312 304 301 290 282 276 270 266 262 257 253
67 66 117 108 145 202 234 190 169 121 289 200 198 221 193 158 131 222 359 8 8 2 355 349 347 344 340 336 336 336 336 334 326 312 301 296 296 291 282 277 271 267 262 258
69 40 138 154 198 286 247 187 143 100 231 129 127 126 136 119 111 103 350 351 344 339 337 335 337 338 334 330 329 331 332 327 322 316 307 299 295 293 288 280 274 270 265 261
148 137 166 82 78 271 173 128 166 170 124 130 121 120 120 109 7 321 330 332 332 331 331 329 329 332 329 327 326 327 328 324 318 314 310 303 298 295 288 280 272 265 261 258
214 176 172 182 202 251 174 145 148 144 142 144 147 151 163 274 321 329 331 327 326 325 325 327 328 329 327 324 324 325 325 323 317 312 309 306 301 298 292 279 273 265 259 254
244 199 144 110 216 205 177 149 156 152 152 155 161 183 280 327 324 321 322 323 323 322 320 320 321 321 320 321 322 323 325 322 319 313 308 306 306 301 292 281 274 267 263 257
202 146 153 257 241 117 169 191 173 163 163 162 166 315 325 319 313 310 309 311 316 318 317 315 315 317 319 318 321 324 326 323 317 314 311 310 310 309 298 288 281 275 270 264
188 170 164 214 182 165 194 191 186 184 185 190 219 276 299 304 304 303 304 306 311 312 312 312 313 315 319 322 327 330 332 332 330 328 325 320 318 314 306 295 284 276 267 255